Time,TemperatureF,DewpointF,PressureIn,WindDirection,WindDirectionDegrees,WindSpeedMPH,WindSpeedGustMPH,Humidity,HourlyPrecipIn,Conditions,Clouds,dailyrainin,SolarRadiationWatts/m^2,SoftwareType,DateUTC
2013-04-02 00:00:00,34.0,23.1,29.65,NW,308,4.0,6.0,64,0.00,,,0.00,0,Wunderground v.1.15,2013-04-02 04:00:00,
2013-04-02 00:01:00,34.0,23.1,29.65,West,259,4.0,6.0,64,0.00,,,0.00,0,Wunderground v.1.15,2013-04-02 04:01:00,
2013-04-02 00:03:00,33.9,23.0,29.65,WNW,303,4.0,8.0,64,0.00,,,0.00,0,Wunderground v.1.15,2013-04-02 04:03:00,
2013-04-02 00:07:00,33.9,22.6,29.66,NW,306,5.0,8.0,63,0.00,,,0.00,0,Wunderground v.1.15,2013-04-02 04:07:00,
2013-04-02 00:12:00,33.8,22.1,29.65,WNW,302,6.0,6.0,62,0.00,,,0.00,0,Wunderground v.1.15,2013-04-02 04:12:00,
2013-04-02 00:17:00,33.8,21.8,29.66,WNW,286,6.0,13.0,61,0.00,,,0.00,0,Wunderground v.1.15,2013-04-02 04:17:00,
2013-04-02 00:22:00,33.7,21.3,29.66,WNW,300,6.0,12.0,60,0.00,,,0.00,0,Wunderground v.1.15,2013-04-02 04:22:00,
2013-04-02 00:27:00,33.6,21.6,29.67,NNW,344,5.0,12.0,61,0.00,,,0.00,0,Wunderground v.1.15,2013-04-02 04:27:00,
2013-04-02 00:33:00,33.5,21.9,29.68,WNW,298,4.0,5.0,62,0.00,,,0.00,0,Wunderground v.1.15,2013-04-02 04:33:00,
2013-04-02 00:39:00,33.2,22.0,29.68,NW,308,3.0,6.0,63,0.00,,,0.00,0,Wunderground v.1.15,2013-04-02 04:39:00,
2013-04-02 00:44:00,33.0,22.1,29.68,West,266,2.0,4.0,64,0.00,,,0.00,0,Wunderground v.1.15,2013-04-02 04:44:00,
2013-04-02 00:50:00,32.8,22.0,29.69,West,271,3.0,3.0,64,0.00,,,0.00,0,Wunderground v.1.15,2013-04-02 04:50:00,
2013-04-02 00:55:00,32.6,21.8,29.69,WSW,251,3.0,7.0,64,0.00,,,0.00,0,Wunderground v.1.15,2013-04-02 04:55:00,
2013-04-02 01:00:00,32.5,22.0,29.69,NW,315,3.0,3.0,65,0.00,,,0.00,0,Wunderground v.1.15,2013-04-02 05:00:00,
2013-04-02 01:06:00,32.3,21.8,29.70,NW,323,2.0,6.0,65,0.00,,,0.00,0,Wunderground v.1.15,2013-04-02 05:06:00,
2013-04-02 01:11:00,32.1,22.0,29.70,West,276,2.0,5.0,66,0.00,,,0.00,0,Wunderground v.1.15,2013-04-02 05:11:00,
2013-04-02 01:17:00,31.9,21.8,29.70,NW,304,2.0,5.0,66,0.00,,,0.00,0,Wunderground v.1.15,2013-04-02 05:17:00,
2013-04-02 01:22:00,31.8,21.7,29.70,WNW,297,2.0,4.0,66,0.00,,,0.00,0,Wunderground v.1.15,2013-04-02 05:22:00,
2013-04-02 01:27:00,31.7,21.6,29.71,West,279,2.0,5.0,66,0.00,,,0.00,0,Wunderground v.1.15,2013-04-02 05:27:00,
2013-04-02 01:32:00,31.6,21.5,29.71,West,263,2.0,5.0,66,0.00,,,0.00,0,Wunderground v.1.15,2013-04-02 05:32:00,
2013-04-02 01:37:00,31.5,20.7,29.71,NW,304,2.0,6.0,64,0.00,,,0.00,0,Wunderground v.1.15,2013-04-02 05:37:00,
2013-04-02 01:43:00,31.5,20.7,29.71,West,271,2.0,4.0,64,0.00,,,0.00,0,Wunderground v.1.15,2013-04-02 05:43:00,
2013-04-02 01:48:00,31.4,20.6,29.71,West,281,1.0,4.0,64,0.00,,,0.00,0,Wunderground v.1.15,2013-04-02 05:48:00,
2013-04-02 01:54:00,31.3,20.5,29.71,West,273,1.0,2.0,64,0.00,,,0.00,0,Wunderground v.1.15,2013-04-02 05:54:00,
2013-04-02 01:59:00,31.2,20.8,29.71,South,186,0.0,2.0,65,0.00,,,0.00,0,Wunderground v.1.15,2013-04-02 05:59:00,
2013-04-02 02:05:00,31.0,20.2,29.71,West,261,1.0,3.0,64,0.00,,,0.00,0,Wunderground v.1.15,2013-04-02 06:05:00,
2013-04-02 02:10:00,30.9,20.1,29.71,WNW,284,2.0,2.0,64,0.00,,,0.00,0,Wunderground v.1.15,2013-04-02 06:10:00,
2013-04-02 02:16:00,30.9,19.8,29.71,West,263,1.0,4.0,63,0.00,,,0.00,0,Wunderground v.1.15,2013-04-02 06:16:00,
2013-04-02 02:22:00,30.9,20.1,29.71,WSW,246,1.0,1.0,64,0.00,,,0.00,0,Wunderground v.1.15,2013-04-02 06:22:00,
2013-04-02 02:28:00,30.7,20.0,29.71,WSW,257,0.0,2.0,64,0.00,,,0.00,0,Wunderground v.1.15,2013-04-02 06:28:00,
2013-04-02 02:33:00,30.6,19.9,29.71,West,269,1.0,2.0,64,0.00,,,0.00,0,Wunderground v.1.15,2013-04-02 06:33:00,
2013-04-02 02:39:00,30.4,19.7,29.71,WSW,257,1.0,2.0,64,0.00,,,0.00,0,Wunderground v.1.15,2013-04-02 06:39:00,
2013-04-02 02:45:00,30.4,19.7,29.71,WSW,246,2.0,6.0,64,0.00,,,0.00,0,Wunderground v.1.15,2013-04-02 06:45:00,
2013-04-02 02:51:00,30.4,19.7,29.71,West,278,3.0,3.0,64,0.00,,,0.00,0,Wunderground v.1.15,2013-04-02 06:51:00,
2013-04-02 02:56:00,30.4,19.7,29.71,West,261,2.0,5.0,64,0.00,,,0.00,0,Wunderground v.1.15,2013-04-02 06:56:00,
2013-04-02 03:01:00,30.4,19.3,29.71,West,273,3.0,5.0,63,0.00,,,0.00,0,Wunderground v.1.15,2013-04-02 07:01:00,
2013-04-02 03:06:00,30.5,19.0,29.71,WNW,286,4.0,5.0,62,0.00,,,0.00,0,Wunderground v.1.15,2013-04-02 07:06:00,
2013-04-02 03:11:00,30.5,19.0,29.72,WNW,300,4.0,7.0,62,0.00,,,0.00,0,Wunderground v.1.15,2013-04-02 07:11:00,
2013-04-02 03:17:00,30.6,18.3,29.72,WNW,296,4.0,7.0,60,0.00,,,0.00,0,Wunderground v.1.15,2013-04-02 07:17:00,
2013-04-02 03:23:00,30.7,18.4,29.72,WNW,298,5.0,6.0,60,0.00,,,0.00,0,Wunderground v.1.15,2013-04-02 07:23:00,
2013-04-02 03:28:00,30.7,18.8,29.72,WNW,300,3.0,6.0,61,0.00,,,0.00,0,Wunderground v.1.15,2013-04-02 07:28:00,
2013-04-02 03:33:00,30.6,18.7,29.72,West,259,2.0,2.0,61,0.00,,,0.00,0,Wunderground v.1.15,2013-04-02 07:33:00,
2013-04-02 03:38:00,30.5,18.6,29.72,West,268,3.0,4.0,61,0.00,,,0.00,0,Wunderground v.1.15,2013-04-02 07:38:00,
2013-04-02 03:44:00,30.4,18.5,29.72,WNW,292,3.0,4.0,61,0.00,,,0.00,0,Wunderground v.1.15,2013-04-02 07:44:00,
2013-04-02 03:49:00,30.3,19.2,29.72,NW,311,2.0,4.0,63,0.00,,,0.00,0,Wunderground v.1.15,2013-04-02 07:49:00,
2013-04-02 03:55:00,30.1,19.0,29.72,WNW,289,1.0,2.0,63,0.00,,,0.00,0,Wunderground v.1.15,2013-04-02 07:55:00,
2013-04-02 04:01:00,30.0,18.9,29.72,WNW,294,1.0,2.0,63,0.00,,,0.00,0,Wunderground v.1.15,2013-04-02 08:01:00,
2013-04-02 04:06:00,29.8,19.1,29.72,WNW,287,1.0,2.0,64,0.00,,,0.00,0,Wunderground v.1.15,2013-04-02 08:06:00,
2013-04-02 04:11:00,29.7,19.4,29.72,WNW,289,0.0,1.0,65,0.00,,,0.00,0,Wunderground v.1.15,2013-04-02 08:11:00,
2013-04-02 04:17:00,29.5,19.2,29.72,WNW,289,0.0,1.0,65,0.00,,,0.00,0,Wunderground v.1.15,2013-04-02 08:17:00,
2013-04-02 04:22:00,29.4,19.4,29.72,WNW,289,0.0,0.0,66,0.00,,,0.00,0,Wunderground v.1.15,2013-04-02 08:22:00,
2013-04-02 04:27:00,29.2,19.6,29.73,WNW,294,0.0,2.0,67,0.00,,,0.00,0,Wunderground v.1.15,2013-04-02 08:27:00,
2013-04-02 04:33:00,29.0,19.8,29.73,WNW,294,0.0,0.0,68,0.00,,,0.00,0,Wunderground v.1.15,2013-04-02 08:33:00,
2013-04-02 04:39:00,28.8,19.6,29.73,West,277,0.0,2.0,68,0.00,,,0.00,0,Wunderground v.1.15,2013-04-02 08:39:00,
2013-04-02 04:45:00,28.7,19.8,29.73,West,276,0.0,2.0,69,0.00,,,0.00,0,Wunderground v.1.15,2013-04-02 08:45:00,
2013-04-02 04:50:00,28.6,20.1,29.73,West,280,1.0,2.0,70,0.00,,,0.00,0,Wunderground v.1.15,2013-04-02 08:50:00,
2013-04-02 04:55:00,28.5,20.3,29.74,WNW,283,1.0,3.0,71,0.00,,,0.00,0,Wunderground v.1.15,2013-04-02 08:55:00,
2013-04-02 05:00:00,28.4,20.2,29.74,NW,314,1.0,1.0,71,0.00,,,0.00,0,Wunderground v.1.15,2013-04-02 09:00:00,
2013-04-02 05:06:00,28.4,20.5,29.74,NW,306,2.0,4.0,72,0.00,,,0.00,0,Wunderground v.1.15,2013-04-02 09:06:00,
2013-04-02 05:12:00,28.5,20.3,29.74,WNW,295,2.0,3.0,71,0.00,,,0.00,0,Wunderground v.1.15,2013-04-02 09:12:00,
2013-04-02 05:17:00,28.5,20.6,29.74,West,261,2.0,3.0,72,0.00,,,0.00,0,Wunderground v.1.15,2013-04-02 09:17:00,
2013-04-02 05:23:00,28.5,20.6,29.74,WNW,286,1.0,2.0,72,0.00,,,0.00,0,Wunderground v.1.15,2013-04-02 09:23:00,
2013-04-02 05:29:00,28.5,20.6,29.74,WNW,285,1.0,3.0,72,0.00,,,0.00,0,Wunderground v.1.15,2013-04-02 09:29:00,
2013-04-02 05:34:00,28.5,20.6,29.74,West,278,1.0,3.0,72,0.00,,,0.00,0,Wunderground v.1.15,2013-04-02 09:34:00,
2013-04-02 05:39:00,28.5,20.6,29.74,West,278,1.0,3.0,72,0.00,,,0.00,0,Wunderground v.1.15,2013-04-02 09:39:00,
2013-04-02 05:45:00,28.5,20.6,29.74,West,278,0.0,1.0,72,0.00,,,0.00,0,Wunderground v.1.15,2013-04-02 09:45:00,
2013-04-02 05:50:00,28.4,20.8,29.74,West,278,0.0,0.0,73,0.00,,,0.00,0,Wunderground v.1.15,2013-04-02 09:50:00,
2013-04-02 05:55:00,28.3,20.7,29.75,WNW,291,0.0,1.0,73,0.00,,,0.00,0,Wunderground v.1.15,2013-04-02 09:55:00,
2013-04-02 06:01:00,28.0,20.5,29.75,NNW,329,1.0,1.0,73,0.00,,,0.00,0,Wunderground v.1.15,2013-04-02 10:01:00,
2013-04-02 06:07:00,27.8,20.6,29.75,NNW,329,0.0,1.0,74,0.00,,,0.00,0,Wunderground v.1.15,2013-04-02 10:07:00,
2013-04-02 06:12:00,27.6,20.4,29.75,NNW,329,0.0,0.0,74,0.00,,,0.00,0,Wunderground v.1.15,2013-04-02 10:12:00,
2013-04-02 06:17:00,27.4,20.2,29.75,WNW,289,1.0,2.0,74,0.00,,,0.00,5,Wunderground v.1.15,2013-04-02 10:17:00,
2013-04-02 06:22:00,27.3,20.4,29.75,WNW,286,1.0,1.0,75,0.00,,,0.00,9,Wunderground v.1.15,2013-04-02 10:22:00,
2013-04-02 06:28:00,27.1,20.2,29.75,WNW,291,1.0,4.0,75,0.00,,,0.00,11,Wunderground v.1.15,2013-04-02 10:28:00,
2013-04-02 06:34:00,27.0,19.8,29.76,NNW,327,2.0,3.0,74,0.00,,,0.00,14,Wunderground v.1.15,2013-04-02 10:34:00,
2013-04-02 06:40:00,27.0,19.5,29.76,West,278,1.0,2.0,73,0.00,,,0.00,16,Wunderground v.1.15,2013-04-02 10:40:00,
2013-04-02 06:45:00,27.0,19.2,29.76,WNW,288,1.0,3.0,72,0.00,,,0.00,19,Wunderground v.1.15,2013-04-02 10:45:00,
2013-04-02 06:50:00,27.0,19.2,29.76,WNW,300,1.0,4.0,72,0.00,,,0.00,21,Wunderground v.1.15,2013-04-02 10:50:00,
2013-04-02 06:55:00,26.9,19.1,29.76,WNW,297,1.0,4.0,72,0.00,,,0.00,25,Wunderground v.1.15,2013-04-02 10:55:00,
2013-04-02 07:01:00,27.0,18.5,29.76,WNW,290,2.0,5.0,70,0.00,,,0.00,28,Wunderground v.1.15,2013-04-02 11:01:00,
2013-04-02 07:06:00,27.1,18.6,29.77,NW,312,2.0,5.0,70,0.00,,,0.00,30,Wunderground v.1.15,2013-04-02 11:06:00,
2013-04-02 07:12:00,27.2,18.7,29.77,West,275,2.0,6.0,70,0.00,,,0.00,40,Wunderground v.1.15,2013-04-02 11:12:00,
2013-04-02 07:17:00,27.3,18.5,29.77,WNW,301,2.0,6.0,69,0.00,,,0.00,56,Wunderground v.1.15,2013-04-02 11:17:00,
2013-04-02 07:22:00,27.4,18.6,29.77,WNW,289,2.0,4.0,69,0.00,,,0.00,104,Wunderground v.1.15,2013-04-02 11:22:00,
2013-04-02 07:27:00,27.6,18.1,29.77,WNW,292,3.0,6.0,67,0.00,,,0.00,144,Wunderground v.1.15,2013-04-02 11:27:00,
2013-04-02 07:33:00,27.8,17.9,29.77,WNW,285,3.0,3.0,66,0.00,,,0.00,174,Wunderground v.1.15,2013-04-02 11:33:00,
2013-04-02 07:38:00,28.0,18.1,29.77,WNW,302,2.0,4.0,66,0.00,,,0.00,192,Wunderground v.1.15,2013-04-02 11:38:00,
2013-04-02 07:43:00,28.2,16.5,29.77,West,279,2.0,10.0,61,0.00,,,0.00,88,Wunderground v.1.15,2013-04-02 11:43:00,
2013-04-02 07:48:00,28.3,15.8,29.77,WNW,287,3.0,10.0,59,0.00,,,0.00,220,Wunderground v.1.15,2013-04-02 11:48:00,
2013-04-02 07:54:00,28.4,15.9,29.77,NNW,328,3.0,4.0,59,0.00,,,0.00,206,Wunderground v.1.15,2013-04-02 11:54:00,
2013-04-02 08:00:00,28.5,15.6,29.77,WNW,298,3.0,3.0,58,0.00,,,0.00,153,Wunderground v.1.15,2013-04-02 12:00:00,
2013-04-02 08:05:00,28.8,15.5,29.77,NW,306,2.0,9.0,57,0.00,,,0.00,199,Wunderground v.1.15,2013-04-02 12:05:00,
2013-04-02 08:10:00,28.9,15.2,29.77,WSW,253,3.0,3.0,56,0.00,,,0.00,195,Wunderground v.1.15,2013-04-02 12:10:00,
2013-04-02 08:15:00,29.1,15.7,29.77,West,272,3.0,7.0,57,0.00,,,0.00,244,Wunderground v.1.15,2013-04-02 12:15:00,
2013-04-02 08:20:00,29.2,15.0,29.78,WNW,286,3.0,3.0,55,0.00,,,0.00,209,Wunderground v.1.15,2013-04-02 12:20:00,
2013-04-02 08:26:00,29.3,14.3,29.77,WNW,302,4.0,6.0,53,0.00,,,0.00,241,Wunderground v.1.15,2013-04-02 12:26:00,
2013-04-02 08:31:00,29.5,14.9,29.77,WNW,293,4.0,4.0,54,0.00,,,0.00,352,Wunderground v.1.15,2013-04-02 12:31:00,
2013-04-02 08:37:00,29.8,15.2,29.78,NW,320,4.0,4.0,54,0.00,,,0.00,374,Wunderground v.1.15,2013-04-02 12:37:00,
2013-04-02 08:43:00,29.8,14.7,29.78,WNW,284,5.0,10.0,53,0.00,,,0.00,387,Wunderground v.1.15,2013-04-02 12:43:00,
2013-04-02 08:48:00,29.9,14.8,29.78,West,273,6.0,10.0,53,0.00,,,0.00,403,Wunderground v.1.15,2013-04-02 12:48:00,
2013-04-02 08:53:00,30.1,15.4,29.78,NW,315,4.0,7.0,54,0.00,,,0.00,417,Wunderground v.1.15,2013-04-02 12:53:00,
2013-04-02 08:58:00,30.7,16.0,29.78,WNW,290,3.0,7.0,54,0.00,,,0.00,443,Wunderground v.1.15,2013-04-02 12:58:00,
2013-04-02 09:04:00,30.9,15.3,29.77,SW,234,3.0,3.0,52,0.00,,,0.00,468,Wunderground v.1.15,2013-04-02 13:04:00,
2013-04-02 09:09:00,31.4,16.7,29.78,WSW,251,2.0,3.0,54,0.00,,,0.00,512,Wunderground v.1.15,2013-04-02 13:09:00,
2013-04-02 09:15:00,31.5,15.9,29.77,West,270,2.0,6.0,52,0.00,,,0.00,512,Wunderground v.1.15,2013-04-02 13:15:00,
2013-04-02 09:21:00,31.4,15.8,29.77,West,259,2.0,3.0,52,0.00,,,0.00,547,Wunderground v.1.15,2013-04-02 13:21:00,
2013-04-02 09:26:00,31.2,14.7,29.78,WNW,286,3.0,12.0,50,0.00,,,0.00,601,Wunderground v.1.15,2013-04-02 13:26:00,
2013-04-02 09:31:00,31.3,14.8,29.77,WSW,243,5.0,5.0,50,0.00,,,0.00,127,Wunderground v.1.15,2013-04-02 13:31:00,
2013-04-02 09:37:00,31.3,14.8,29.77,WSW,242,5.0,6.0,50,0.00,,,0.00,404,Wunderground v.1.15,2013-04-02 13:37:00,
2013-04-02 09:42:00,31.7,14.7,29.78,West,281,4.0,5.0,49,0.00,,,0.00,243,Wunderground v.1.15,2013-04-02 13:42:00,
2013-04-02 09:47:00,31.5,14.5,29.77,WSW,238,3.0,5.0,49,0.00,,,0.00,207,Wunderground v.1.15,2013-04-02 13:47:00,
2013-04-02 09:53:00,31.3,14.3,29.78,West,273,4.0,6.0,49,0.00,,,0.00,225,Wunderground v.1.15,2013-04-02 13:53:00,
2013-04-02 09:58:00,31.1,14.1,29.78,WNW,290,3.0,6.0,49,0.00,,,0.00,243,Wunderground v.1.15,2013-04-02 13:58:00,
2013-04-02 10:04:00,31.1,14.6,29.78,WNW,291,3.0,4.0,50,0.00,,,0.00,232,Wunderground v.1.15,2013-04-02 14:04:00,
2013-04-02 10:10:00,31.3,14.8,29.78,NW,306,4.0,4.0,50,0.00,,,0.00,204,Wunderground v.1.15,2013-04-02 14:10:00,
2013-04-02 10:15:00,31.5,15.0,29.77,WNW,290,3.0,4.0,50,0.00,,,0.00,269,Wunderground v.1.15,2013-04-02 14:15:00,
2013-04-02 10:21:00,31.7,14.7,29.77,West,281,3.0,3.0,49,0.00,,,0.00,367,Wunderground v.1.15,2013-04-02 14:21:00,
2013-04-02 10:26:00,32.0,15.4,29.77,WNW,301,4.0,9.0,50,0.00,,,0.00,357,Wunderground v.1.15,2013-04-02 14:26:00,
2013-04-02 10:31:00,32.9,16.7,29.77,SSW,205,3.0,4.0,51,0.00,,,0.00,838,Wunderground v.1.15,2013-04-02 14:31:00,
2013-04-02 10:36:00,33.4,15.3,29.77,West,261,4.0,4.0,47,0.00,,,0.00,710,Wunderground v.1.15,2013-04-02 14:36:00,
2013-04-02 10:41:00,33.5,16.4,29.77,West,265,3.0,3.0,49,0.00,,,0.00,230,Wunderground v.1.15,2013-04-02 14:41:00,
2013-04-02 10:46:00,33.7,17.0,29.77,North,5,3.0,3.0,50,0.00,,,0.00,772,Wunderground v.1.15,2013-04-02 14:46:00,
2013-04-02 10:52:00,33.5,16.4,29.77,WNW,297,3.0,4.0,49,0.00,,,0.00,246,Wunderground v.1.15,2013-04-02 14:52:00,
2013-04-02 10:58:00,33.4,16.3,29.77,WSW,247,3.0,7.0,49,0.00,,,0.00,243,Wunderground v.1.15,2013-04-02 14:58:00,
2013-04-02 11:04:00,33.8,16.2,29.77,WNW,288,3.0,6.0,48,0.00,,,0.00,517,Wunderground v.1.15,2013-04-02 15:04:00,
2013-04-02 11:10:00,33.6,15.5,29.77,SSW,210,3.0,3.0,47,0.00,,,0.00,374,Wunderground v.1.15,2013-04-02 15:10:00,
2013-04-02 11:16:00,33.2,16.1,29.77,West,271,3.0,7.0,49,0.00,,,0.00,311,Wunderground v.1.15,2013-04-02 15:16:00,
2013-04-02 11:21:00,32.8,15.7,29.77,West,267,4.0,7.0,49,0.00,,,0.00,490,Wunderground v.1.15,2013-04-02 15:21:00,
2013-04-02 11:27:00,32.9,16.3,29.77,West,263,5.0,7.0,50,0.00,,,0.00,338,Wunderground v.1.15,2013-04-02 15:27:00,
2013-04-02 11:32:00,32.9,16.7,29.76,SW,214,4.0,4.0,51,0.00,,,0.00,925,Wunderground v.1.15,2013-04-02 15:32:00,
2013-04-02 11:37:00,34.0,18.2,29.76,NNW,327,4.0,6.0,52,0.00,,,0.00,889,Wunderground v.1.15,2013-04-02 15:37:00,
2013-04-02 11:42:00,34.8,18.9,29.76,West,267,3.0,3.0,52,0.00,,,0.00,775,Wunderground v.1.15,2013-04-02 15:42:00,
2013-04-02 11:48:00,34.8,18.0,29.76,South,190,3.0,7.0,50,0.00,,,0.00,418,Wunderground v.1.15,2013-04-02 15:48:00,
2013-04-02 11:53:00,34.8,18.5,29.76,WNW,289,3.0,5.0,51,0.00,,,0.00,411,Wunderground v.1.15,2013-04-02 15:53:00,
2013-04-02 11:59:00,34.7,19.3,29.76,WSW,238,2.0,5.0,53,0.00,,,0.00,353,Wunderground v.1.15,2013-04-02 15:59:00,
2013-04-02 12:04:00,34.6,19.6,29.76,West,266,3.0,4.0,54,0.00,,,0.00,846,Wunderground v.1.15,2013-04-02 16:04:00,
2013-04-02 12:09:00,35.1,19.7,29.76,WSW,244,3.0,4.0,53,0.00,,,0.00,835,Wunderground v.1.15,2013-04-02 16:09:00,
2013-04-02 12:14:00,35.3,18.0,29.75,WNW,288,3.0,7.0,49,0.00,,,0.00,900,Wunderground v.1.15,2013-04-02 16:14:00,
2013-04-02 12:19:00,35.3,18.0,29.75,West,280,4.0,7.0,49,0.00,,,0.00,294,Wunderground v.1.15,2013-04-02 16:19:00,
2013-04-02 12:24:00,34.7,17.0,29.75,West,263,3.0,4.0,48,0.00,,,0.00,232,Wunderground v.1.15,2013-04-02 16:24:00,
2013-04-02 12:29:00,34.1,18.3,29.76,South,190,4.0,14.0,52,0.00,,,0.00,174,Wunderground v.1.15,2013-04-02 16:29:00,
2013-04-02 12:36:00,33.0,20.6,29.75,WSW,248,4.0,5.0,60,0.00,,,0.00,225,Wunderground v.1.15,2013-04-02 16:36:00,
2013-04-02 12:41:00,34.0,19.9,29.75,WSW,258,4.0,10.0,56,0.00,,,0.00,838,Wunderground v.1.15,2013-04-02 16:41:00,
2013-04-02 12:46:00,35.2,18.9,29.75,WSW,242,4.0,10.0,51,0.00,,,0.00,1025,Wunderground v.1.15,2013-04-02 16:46:00,
2013-04-02 12:51:00,36.2,18.9,29.75,WSW,241,3.0,5.0,49,0.00,,,0.00,944,Wunderground v.1.15,2013-04-02 16:51:00,
2013-04-02 12:57:00,36.8,16.4,29.75,West,267,4.0,10.0,43,0.00,,,0.00,904,Wunderground v.1.15,2013-04-02 16:57:00,
2013-04-02 13:03:00,37.0,17.1,29.74,WSW,254,5.0,5.0,44,0.00,,,0.00,919,Wunderground v.1.15,2013-04-02 17:03:00,
2013-04-02 13:09:00,37.7,16.6,29.74,WSW,238,4.0,7.0,42,0.00,,,0.00,998,Wunderground v.1.15,2013-04-02 17:09:00,
2013-04-02 13:15:00,37.1,14.4,29.74,West,262,4.0,10.0,39,0.00,,,0.00,309,Wunderground v.1.15,2013-04-02 17:15:00,
2013-04-02 13:21:00,36.3,14.8,29.74,West,274,4.0,6.0,41,0.00,,,0.00,434,Wunderground v.1.15,2013-04-02 17:21:00,
2013-04-02 13:27:00,36.1,14.1,29.74,WSW,258,4.0,7.0,40,0.00,,,0.00,394,Wunderground v.1.15,2013-04-02 17:27:00,
2013-04-02 13:33:00,36.1,14.1,29.74,WSW,257,5.0,7.0,40,0.00,,,0.00,613,Wunderground v.1.15,2013-04-02 17:33:00,
2013-04-02 13:39:00,36.3,14.8,29.74,SSW,211,5.0,7.0,41,0.00,,,0.00,492,Wunderground v.1.15,2013-04-02 17:39:00,
2013-04-02 13:45:00,35.9,15.0,29.73,West,263,3.0,8.0,42,0.00,,,0.00,269,Wunderground v.1.15,2013-04-02 17:45:00,
2013-04-02 13:50:00,35.4,11.7,29.73,West,271,4.0,4.0,37,0.00,,,0.00,255,Wunderground v.1.15,2013-04-02 17:50:00,
2013-04-02 13:55:00,35.3,12.8,29.73,NNW,335,5.0,6.0,39,0.00,,,0.00,591,Wunderground v.1.15,2013-04-02 17:55:00,
2013-04-02 14:01:00,36.3,13.1,29.73,West,277,3.0,7.0,38,0.00,,,0.00,306,Wunderground v.1.15,2013-04-02 18:01:00,
2013-04-02 14:06:00,36.9,12.4,29.73,SW,220,3.0,11.0,36,0.00,,,0.00,886,Wunderground v.1.15,2013-04-02 18:06:00,
2013-04-02 14:11:00,36.3,10.6,29.73,West,279,5.0,5.0,34,0.00,,,0.00,272,Wunderground v.1.15,2013-04-02 18:11:00,
2013-04-02 14:17:00,36.6,12.1,29.73,SW,221,5.0,6.0,36,0.00,,,0.00,763,Wunderground v.1.15,2013-04-02 18:17:00,
2013-04-02 14:22:00,37.1,13.2,29.73,WNW,283,5.0,8.0,37,0.00,,,0.00,499,Wunderground v.1.15,2013-04-02 18:22:00,
2013-04-02 14:28:00,37.3,13.4,29.73,West,281,5.0,10.0,37,0.00,,,0.00,360,Wunderground v.1.15,2013-04-02 18:28:00,
2013-04-02 14:33:00,36.9,12.4,29.73,West,268,4.0,8.0,36,0.00,,,0.00,297,Wunderground v.1.15,2013-04-02 18:33:00,
2013-04-02 14:39:00,36.9,13.6,29.73,West,269,4.0,10.0,38,0.00,,,0.00,357,Wunderground v.1.15,2013-04-02 18:39:00,
2013-04-02 14:44:00,37.0,12.5,29.73,NW,321,3.0,4.0,36,0.00,,,0.00,315,Wunderground v.1.15,2013-04-02 18:44:00,
2013-04-02 14:49:00,37.2,12.0,29.73,West,266,3.0,7.0,35,0.00,,,0.00,772,Wunderground v.1.15,2013-04-02 18:49:00,
2013-04-02 14:54:00,37.1,12.6,29.72,SSW,201,4.0,6.0,36,0.00,,,0.00,204,Wunderground v.1.15,2013-04-02 18:54:00,
2013-04-02 14:59:00,36.4,11.9,29.72,SW,232,4.0,7.0,36,0.00,,,0.00,373,Wunderground v.1.15,2013-04-02 18:59:00,
2013-04-02 15:05:00,36.2,11.8,29.72,WSW,239,5.0,15.0,36,0.00,,,0.00,629,Wunderground v.1.15,2013-04-02 19:05:00,
2013-04-02 15:10:00,37.0,13.7,29.72,WSW,238,5.0,5.0,38,0.00,,,0.00,577,Wunderground v.1.15,2013-04-02 19:10:00,
2013-04-02 15:17:00,37.2,13.9,29.72,WSW,255,4.0,9.0,38,0.00,,,0.00,693,Wunderground v.1.15,2013-04-02 19:17:00,
2013-04-02 15:22:00,37.7,13.7,29.72,WSW,253,4.0,6.0,37,0.00,,,0.00,687,Wunderground v.1.15,2013-04-02 19:22:00,
2013-04-02 15:28:00,37.9,14.5,29.72,SW,229,4.0,13.0,38,0.00,,,0.00,513,Wunderground v.1.15,2013-04-02 19:28:00,
2013-04-02 15:33:00,37.9,13.3,29.72,SW,223,4.0,7.0,36,0.00,,,0.00,311,Wunderground v.1.15,2013-04-02 19:33:00,
2013-04-02 15:39:00,37.1,13.2,29.72,WSW,244,4.0,7.0,37,0.00,,,0.00,378,Wunderground v.1.15,2013-04-02 19:39:00,
2013-04-02 15:44:00,36.9,13.0,29.71,NW,306,3.0,5.0,37,0.00,,,0.00,211,Wunderground v.1.15,2013-04-02 19:44:00,
2013-04-02 15:49:00,36.7,12.8,29.71,SW,215,3.0,6.0,37,0.00,,,0.00,239,Wunderground v.1.15,2013-04-02 19:49:00,
2013-04-02 15:55:00,36.3,11.9,29.71,WSW,257,4.0,7.0,36,0.00,,,0.00,214,Wunderground v.1.15,2013-04-02 19:55:00,
2013-04-02 16:01:00,36.3,12.5,29.71,West,279,4.0,4.0,37,0.00,,,0.00,237,Wunderground v.1.15,2013-04-02 20:01:00,
2013-04-02 16:06:00,36.5,12.0,29.71,West,272,5.0,9.0,36,0.00,,,0.00,348,Wunderground v.1.15,2013-04-02 20:06:00,
2013-04-02 16:12:00,37.1,13.2,29.71,WSW,252,5.0,8.0,37,0.00,,,0.00,635,Wunderground v.1.15,2013-04-02 20:12:00,
2013-04-02 16:17:00,37.8,14.4,29.71,West,260,5.0,14.0,38,0.00,,,0.00,454,Wunderground v.1.15,2013-04-02 20:17:00,
2013-04-02 16:23:00,37.5,12.9,29.71,West,263,5.0,7.0,36,0.00,,,0.00,446,Wunderground v.1.15,2013-04-02 20:23:00,
2013-04-02 16:29:00,37.0,12.5,29.71,SW,214,5.0,13.0,36,0.00,,,0.00,165,Wunderground v.1.15,2013-04-02 20:29:00,
2013-04-02 16:34:00,36.5,12.7,29.71,WNW,284,4.0,5.0,37,0.00,,,0.00,128,Wunderground v.1.15,2013-04-02 20:34:00,
2013-04-02 16:39:00,36.2,12.4,29.71,SSW,196,3.0,8.0,37,0.00,,,0.00,190,Wunderground v.1.15,2013-04-02 20:39:00,
2013-04-02 16:45:00,36.0,11.6,29.71,West,269,4.0,8.0,36,0.00,,,0.00,151,Wunderground v.1.15,2013-04-02 20:45:00,
2013-04-02 16:50:00,35.8,11.4,29.71,West,269,5.0,5.0,36,0.00,,,0.00,127,Wunderground v.1.15,2013-04-02 20:50:00,
2013-04-02 16:55:00,35.6,11.2,29.71,WSW,257,4.0,7.0,36,0.00,,,0.00,118,Wunderground v.1.15,2013-04-02 20:55:00,
2013-04-02 17:00:00,35.5,11.8,29.71,SSW,213,3.0,3.0,37,0.00,,,0.00,125,Wunderground v.1.15,2013-04-02 21:00:00,
2013-04-02 17:06:00,35.5,11.8,29.71,NW,317,2.0,4.0,37,0.00,,,0.00,104,Wunderground v.1.15,2013-04-02 21:06:00,
2013-04-02 17:12:00,35.6,11.9,29.71,WNW,296,3.0,5.0,37,0.00,,,0.00,144,Wunderground v.1.15,2013-04-02 21:12:00,
2013-04-02 17:17:00,35.7,11.9,29.71,West,266,2.0,5.0,37,0.00,,,0.00,125,Wunderground v.1.15,2013-04-02 21:17:00,
2013-04-02 17:22:00,35.9,12.1,29.72,WSW,254,2.0,4.0,37,0.00,,,0.00,357,Wunderground v.1.15,2013-04-02 21:22:00,
2013-04-02 17:30:00,36.6,12.1,29.71,West,280,3.0,3.0,36,0.00,,,0.00,237,Wunderground v.1.15,2013-04-02 21:30:00,
2013-04-02 17:36:00,36.9,12.4,29.72,West,275,5.0,6.0,36,0.00,,,0.00,216,Wunderground v.1.15,2013-04-02 21:36:00,
2013-04-02 17:41:00,36.9,12.4,29.72,West,281,5.0,5.0,36,0.00,,,0.00,144,Wunderground v.1.15,2013-04-02 21:41:00,
2013-04-02 17:47:00,36.7,11.6,29.72,SW,215,4.0,8.0,35,0.00,,,0.00,102,Wunderground v.1.15,2013-04-02 21:47:00,
2013-04-02 17:53:00,36.3,11.9,29.73,WNW,284,3.0,6.0,36,0.00,,,0.00,88,Wunderground v.1.15,2013-04-02 21:53:00,
2013-04-02 17:58:00,36.0,11.6,29.73,West,266,4.0,8.0,36,0.00,,,0.00,127,Wunderground v.1.15,2013-04-02 21:58:00,
2013-04-02 18:04:00,36.0,11.6,29.73,WSW,242,5.0,6.0,36,0.00,,,0.00,113,Wunderground v.1.15,2013-04-02 22:04:00,
2013-04-02 18:09:00,36.0,12.2,29.73,SW,229,4.0,6.0,37,0.00,,,0.00,76,Wunderground v.1.15,2013-04-02 22:09:00,
2013-04-02 18:14:00,35.9,12.1,29.73,West,263,3.0,7.0,37,0.00,,,0.00,58,Wunderground v.1.15,2013-04-02 22:14:00,
2013-04-02 18:19:00,35.5,12.4,29.74,SW,223,3.0,7.0,38,0.00,,,0.00,47,Wunderground v.1.15,2013-04-02 22:19:00,
2013-04-02 18:25:00,35.2,12.7,29.74,NNE,32,4.0,8.0,39,0.00,,,0.00,54,Wunderground v.1.15,2013-04-02 22:25:00,
2013-04-02 18:30:00,35.1,12.6,29.74,WSW,252,3.0,6.0,39,0.00,,,0.00,42,Wunderground v.1.15,2013-04-02 22:30:00,
2013-04-02 18:35:00,35.0,12.5,29.74,WNW,290,3.0,8.0,39,0.00,,,0.00,49,Wunderground v.1.15,2013-04-02 22:35:00,
2013-04-02 18:41:00,34.8,12.9,29.74,West,279,4.0,5.0,40,0.00,,,0.00,25,Wunderground v.1.15,2013-04-02 22:41:00,
2013-04-02 18:47:00,34.5,13.7,29.75,West,265,4.0,8.0,42,0.00,,,0.00,14,Wunderground v.1.15,2013-04-02 22:47:00,
2013-04-02 18:52:00,34.1,14.4,29.75,WSW,241,4.0,5.0,44,0.00,,,0.00,11,Wunderground v.1.15,2013-04-02 22:52:00,
2013-04-02 18:58:00,33.7,15.1,29.75,WSW,245,3.0,5.0,46,0.00,,,0.00,7,Wunderground v.1.15,2013-04-02 22:58:00,
2013-04-02 19:04:00,33.3,15.7,29.76,NW,315,3.0,5.0,48,0.00,,,0.00,5,Wunderground v.1.15,2013-04-02 23:04:00,
2013-04-02 19:09:00,33.0,16.4,29.76,NE,42,3.0,5.0,50,0.00,,,0.00,0,Wunderground v.1.15,2013-04-02 23:09:00,
2013-04-02 19:15:00,32.6,16.4,29.76,WNW,296,3.0,6.0,51,0.00,,,0.00,0,Wunderground v.1.15,2013-04-02 23:15:00,
2013-04-02 19:20:00,32.3,16.6,29.76,West,278,2.0,2.0,52,0.00,,,0.00,0,Wunderground v.1.15,2013-04-02 23:20:00,
2013-04-02 19:26:00,32.1,16.9,29.77,WSW,247,3.0,9.0,53,0.00,,,0.00,0,Wunderground v.1.15,2013-04-02 23:26:00,
2013-04-02 19:32:00,31.9,17.1,29.77,WNW,285,3.0,5.0,54,0.00,,,0.00,0,Wunderground v.1.15,2013-04-02 23:32:00,
2013-04-02 19:38:00,31.7,17.4,29.78,WNW,293,3.0,6.0,55,0.00,,,0.00,0,Wunderground v.1.15,2013-04-02 23:38:00,
2013-04-02 19:43:00,31.7,17.8,29.78,NNW,343,3.0,5.0,56,0.00,,,0.00,0,Wunderground v.1.15,2013-04-02 23:43:00,
2013-04-02 19:48:00,31.5,17.6,29.78,WSW,253,4.0,5.0,56,0.00,,,0.00,0,Wunderground v.1.15,2013-04-02 23:48:00,
2013-04-02 19:54:00,31.4,17.9,29.78,WNW,297,5.0,10.0,57,0.00,,,0.00,0,Wunderground v.1.15,2013-04-02 23:54:00,
2013-04-02 20:00:00,31.2,18.1,29.79,West,264,4.0,4.0,58,0.00,,,0.00,0,Wunderground v.1.15,2013-04-03 00:00:00,
2013-04-02 20:05:00,31.1,18.0,29.79,West,273,2.0,5.0,58,0.00,,,0.00,0,Wunderground v.1.15,2013-04-03 00:05:00,
2013-04-02 20:11:00,30.8,17.7,29.79,WNW,293,2.0,3.0,58,0.00,,,0.00,0,Wunderground v.1.15,2013-04-03 00:11:00,
2013-04-02 20:17:00,30.7,17.7,29.80,WNW,283,3.0,6.0,58,0.00,,,0.00,0,Wunderground v.1.15,2013-04-03 00:17:00,
2013-04-02 20:23:00,30.7,16.8,29.80,West,269,4.0,4.0,56,0.00,,,0.00,0,Wunderground v.1.15,2013-04-03 00:23:00,
2013-04-02 20:28:00,30.6,16.7,29.80,West,267,2.0,4.0,56,0.00,,,0.00,0,Wunderground v.1.15,2013-04-03 00:28:00,
2013-04-02 20:34:00,30.5,16.7,29.80,WNW,284,2.0,3.0,56,0.00,,,0.00,0,Wunderground v.1.15,2013-04-03 00:34:00,
2013-04-02 20:40:00,30.5,16.7,29.80,SSW,202,2.0,2.0,56,0.00,,,0.00,0,Wunderground v.1.15,2013-04-03 00:40:00,
2013-04-02 20:46:00,30.4,16.1,29.80,West,273,2.0,3.0,55,0.00,,,0.00,0,Wunderground v.1.15,2013-04-03 00:46:00,
2013-04-02 20:52:00,30.3,16.0,29.80,NW,313,2.0,3.0,55,0.00,,,0.00,0,Wunderground v.1.15,2013-04-03 00:52:00,
2013-04-02 20:58:00,30.2,16.0,29.81,WNW,286,1.0,3.0,55,0.00,,,0.00,0,Wunderground v.1.15,2013-04-03 00:58:00,
2013-04-02 21:04:00,30.1,15.9,29.80,West,270,2.0,4.0,55,0.00,,,0.00,0,Wunderground v.1.15,2013-04-03 01:04:00,
2013-04-02 21:09:00,30.1,15.9,29.81,West,265,2.0,4.0,55,0.00,,,0.00,0,Wunderground v.1.15,2013-04-03 01:09:00,
2013-04-02 21:15:00,29.9,15.7,29.80,SW,215,1.0,3.0,55,0.00,,,0.00,0,Wunderground v.1.15,2013-04-03 01:15:00,
2013-04-02 21:21:00,29.8,15.6,29.80,WSW,248,1.0,1.0,55,0.00,,,0.00,0,Wunderground v.1.15,2013-04-03 01:21:00,
2013-04-02 21:26:00,29.7,15.9,29.81,West,266,1.0,3.0,56,0.00,,,0.00,0,Wunderground v.1.15,2013-04-03 01:26:00,
2013-04-02 21:31:00,29.7,15.9,29.81,SSW,203,1.0,1.0,56,0.00,,,0.00,0,Wunderground v.1.15,2013-04-03 01:31:00,
2013-04-02 21:36:00,29.6,15.8,29.81,West,275,1.0,2.0,56,0.00,,,0.00,0,Wunderground v.1.15,2013-04-03 01:36:00,
2013-04-02 21:41:00,29.5,15.7,29.81,WSW,241,1.0,1.0,56,0.00,,,0.00,0,Wunderground v.1.15,2013-04-03 01:41:00,
2013-04-02 21:46:00,29.4,16.0,29.81,SW,235,1.0,1.0,57,0.00,,,0.00,0,Wunderground v.1.15,2013-04-03 01:46:00,
2013-04-02 21:52:00,29.3,16.3,29.81,SW,235,1.0,1.0,58,0.00,,,0.00,0,Wunderground v.1.15,2013-04-03 01:52:00,
2013-04-02 21:57:00,29.3,15.9,29.81,WSW,237,1.0,5.0,57,0.00,,,0.00,0,Wunderground v.1.15,2013-04-03 01:57:00,
2013-04-02 22:02:00,29.4,16.0,29.81,WSW,241,2.0,2.0,57,0.00,,,0.00,0,Wunderground v.1.15,2013-04-03 02:02:00,
2013-04-02 22:08:00,29.4,16.0,29.81,WSW,247,1.0,5.0,57,0.00,,,0.00,0,Wunderground v.1.15,2013-04-03 02:08:00,
2013-04-02 22:14:00,29.4,16.0,29.81,SW,228,1.0,5.0,57,0.00,,,0.00,0,Wunderground v.1.15,2013-04-03 02:14:00,
2013-04-02 22:21:00,29.4,15.6,29.80,South,188,2.0,2.0,56,0.00,,,0.00,0,Wunderground v.1.15,2013-04-03 02:21:00,
2013-04-02 22:26:00,29.3,15.5,29.80,SW,216,1.0,5.0,56,0.00,,,0.00,0,Wunderground v.1.15,2013-04-03 02:26:00,
2013-04-02 22:31:00,29.3,15.9,29.80,SW,218,1.0,1.0,57,0.00,,,0.00,0,Wunderground v.1.15,2013-04-03 02:31:00,
2013-04-02 22:37:00,29.2,15.4,29.80,SW,220,2.0,4.0,56,0.00,,,0.00,0,Wunderground v.1.15,2013-04-03 02:37:00,
2013-04-02 22:42:00,29.2,15.4,29.80,SW,215,2.0,7.0,56,0.00,,,0.00,0,Wunderground v.1.15,2013-04-03 02:42:00,
2013-04-02 22:47:00,29.2,15.4,29.80,SW,234,2.0,7.0,56,0.00,,,0.00,0,Wunderground v.1.15,2013-04-03 02:47:00,
2013-04-02 22:53:00,29.3,15.5,29.80,SW,234,2.0,5.0,56,0.00,,,0.00,0,Wunderground v.1.15,2013-04-03 02:53:00,
2013-04-02 22:59:00,29.3,15.9,29.80,SW,223,3.0,5.0,57,0.00,,,0.00,0,Wunderground v.1.15,2013-04-03 02:59:00,
2013-04-02 23:04:00,29.3,15.9,29.80,SW,234,2.0,4.0,57,0.00,,,0.00,0,Wunderground v.1.15,2013-04-03 03:04:00,
2013-04-02 23:10:00,29.3,15.9,29.80,SW,234,2.0,4.0,57,0.00,,,0.00,0,Wunderground v.1.15,2013-04-03 03:10:00,
2013-04-02 23:17:00,29.3,15.5,29.80,SW,221,2.0,5.0,56,0.00,,,0.00,0,Wunderground v.1.15,2013-04-03 03:17:00,
2013-04-02 23:22:00,29.4,16.0,29.79,WSW,250,2.0,2.0,57,0.00,,,0.00,0,Wunderground v.1.15,2013-04-03 03:22:00,
2013-04-02 23:27:00,29.3,15.5,29.79,SW,232,1.0,4.0,56,0.00,,,0.00,0,Wunderground v.1.15,2013-04-03 03:27:00,
2013-04-02 23:33:00,29.3,15.5,29.79,SW,223,2.0,5.0,56,0.00,,,0.00,0,Wunderground v.1.15,2013-04-03 03:33:00,
2013-04-02 23:39:00,29.3,15.5,29.79,WSW,238,2.0,6.0,56,0.00,,,0.00,0,Wunderground v.1.15,2013-04-03 03:39:00,
2013-04-02 23:44:00,29.4,15.6,29.79,WSW,257,2.0,7.0,56,0.00,,,0.00,0,Wunderground v.1.15,2013-04-03 03:44:00,
2013-04-02 23:50:00,29.6,15.4,29.79,SW,221,3.0,3.0,55,0.00,,,0.00,0,Wunderground v.1.15,2013-04-03 03:50:00,
2013-04-02 23:56:00,29.7,15.5,29.79,SSW,209,3.0,7.0,55,0.00,,,0.00,0,Wunderground v.1.15,2013-04-03 03:56:00,